Home > Weather > Charlottesville > Past weeks

Flag for U.S.A. Weather for the Past 2 Weeks in Charlottesville, Virginia, U.S.A.

Now
26 °F

Sunny.


Feels Like: 26 °F
Forecast: 26 / 46 °F
Wind: No wind

Location: Charlottesville-Albemarle Airport

Current Time: Feb 6, 2016 at 9:13:25 AM

Latest Report: Feb 6, 2016 at 7:53 AM


Visibility: 10 mi

Pressure: 30.45 "Hg

Humidity: 71%

Dew point: 18 °F

Location of CharlottesvilleLocation

Historic Weather in Charlottesville — Graph

°F

Charlottesville Temperature Yesterday

Maximum temperature yesterday: 43 °F (at 2:53 PM)
Minimum temperature yesterday: 29 °F (at 11:53 PM)
Average temperature yesterday: 38 °F

High & Low Weather Summary for the Past Weeks

 TemperatureHumidityPressure
High65 °F (Feb 1, 12:53 PM)100% (Feb 3, 1:00 PM)30.45 "Hg (Feb 3, 1:00 PM)
Low18 °F (Jan 25, 5:53 AM)20% (Jan 24, 2:53 PM)29.58 "Hg (Jan 29, 3:53 AM)
Average39 °F63%30.02 "Hg
* Reported Jan 22 7:53 AM — Feb 6 7:53 AM, Charlottesville, Weather by CustomWeather, © 2016

Note: Actual official high and low records may vary slightly from our data, if they occured in-between our weather recording intervals... More about our weather records

Advertising

Charlottesville Weather History for the Previous 24 Hours

 ConditionsComfort  
Time TempWeatherWind HumidityBarometerVisibility
7:53 AM
Sat, Feb 6
26 °FSunny.No wind71%30.45 "Hg10 mi
6:53 AM23 °FClear.No wind78%30.44 "Hg10 mi
5:53 AM25 °FClear.3 mph75%30.42 "Hg10 mi
4:53 AM26 °FClear.5 mph66%30.41 "Hg10 mi
3:53 AM28 °FClear.No wind64%30.40 "Hg10 mi
2:53 AM27 °FClear.No wind69%30.41 "Hg10 mi
1:53 AM27 °FClear.No wind61%30.39 "Hg10 mi
12:53 AM30 °FClear.6 mph56%30.39 "Hg10 mi
11:53 PM
Fri, Feb 5
29 °FClear.5 mph56%30.40 "Hg10 mi
10:53 PM30 °FClear.No wind56%30.40 "Hg10 mi
9:53 PM35 °FClear.No wind38%30.39 "Hg10 mi
8:53 PM36 °FClear.No wind37%30.37 "Hg10 mi
7:53 PM37 °FClear.6 mph36%30.36 "Hg10 mi
6:53 PM38 °FClear.3 mph33%30.36 "Hg10 mi
5:53 PM39 °FClear.No wind31%30.35 "Hg10 mi
4:53 PM42 °FSunny.9 mph28%30.33 "Hg10 mi
3:53 PM43 °FSunny.9 mph28%30.31 "Hg10 mi
2:53 PM43 °FSunny.8 mph29%30.29 "Hg10 mi
1:53 PM42 °FSunny.7 mph32%30.29 "Hg10 mi
12:53 PM41 °FSunny.9 mph36%30.31 "Hg10 mi
11:53 AM40 °FSunny.12 mph38%30.32 "Hg10 mi
10:53 AM38 °FSunny.13 mph37%30.32 "Hg10 mi
9:53 AM37 °FSunny.15 mph42%30.29 "Hg10 mi
Weather by CustomWeather, © 2016

See weather overviewHow to use our weather pages